HJ-2A (46478 NORAD) Tracking and Keplerian Element Data

This shows tracking and keplerian element data for the satellite.

Feedback or suggestion? Click here.




ElementValue
Catalog46478
NameHJ-2A
Epoch Orbit1000
Epoch Day338.96579186
Epoch Year2020
RAAN53.9373
Inclination98.0421
Eccentricity0.0017688
Argument of Perigee150.9676
Mean Anonmoly209.2504
Mean Motion14.76454583
Decay Rate1.83E-06
L11 46478U 20067A 20338.96579186 .00000183 00000-0 33674-4 0 9990
L22 46478 98.0421 53.9373 0017688 150.9676 209.2504 14.76454583 10009

Live tracking and technical data element details for HJ-2A (NORAD 46478). HJ-2A can be tracked NOW for your location showing map with azimuth and elevation plus other details from your city location.

Track the satellite on the map from your city or location and see movement details for azimuth, elevation, latitude, longitude, range, height, and movement on the map or in text.







IsCatalogInMostPopularTable: catalog: 46478, numindb: 15
Update: records affected: 1



GetName: 46478 HJ-2A

Hit Count: updated at: Sun, 06 Dec 2020 00:56:48 GMT